Location: Gleizolles
(44.4833°N, 6.7667°E)
Time: 00:41:44
(UTC+00:00)

Vanguard 2 - All Passes

Search period start: 13 June 2024 00:00
Search period end: 23 June 2024 00:00
Orbit: 552 x 2914 km, 32.9° (Epoch: 12 June)

Date Brightness Start Highest point End Pass type
(mag) Time Alt. Az. Time Alt. Az. Time Alt. Az.
13 Jun - 06:01:43 10° SSW 06:14:37 26° SE 06:26:13 10° E daylight
13 Jun - 08:09:04 10° SW 08:24:52 44° SSE 08:36:51 10° E daylight
13 Jun - 10:20:10 10° WSW 10:35:07 49° S 10:45:00 10° ESE daylight
13 Jun - 12:32:51 10° W 12:43:59 34° SSW 12:51:20 10° SE daylight
13 Jun - 14:49:43 10° SW 14:50:47 10° SW 14:51:49 10° SW daylight
14 Jun - 04:15:05 10° SSE 04:19:08 11° SE 04:23:10 10° ESE daylight
14 Jun - 06:14:20 10° SSW 06:28:29 31° SSE 06:41:06 10° E daylight
14 Jun - 08:22:46 10° SW 08:38:58 48° SSE 08:51:07 10° E daylight
14 Jun - 10:34:19 10° WSW 10:49:12 49° S 10:59:03 10° ESE daylight
14 Jun - 12:47:20 10° W 12:57:47 29° SSW 13:04:54 10° SSE daylight
15 Jun - 04:24:03 10° SSE 04:32:47 16° SE 04:41:31 10° ESE daylight
15 Jun - 06:27:21 10° SSW 06:42:24 37° SSE 06:55:44 10° E daylight
15 Jun - 08:36:36 10° WSW 08:53:04 51° S 09:05:20 10° ESE daylight
15 Jun - 10:48:32 10° W 11:03:13 47° SSW 11:13:00 10° SE daylight
15 Jun - 13:01:59 10° W 13:11:29 25° SW 13:18:14 10° SSE daylight
16 Jun - 04:35:22 10° S 04:46:26 21° SE 04:57:34 10° E daylight
16 Jun - 06:40:39 10° SW 06:56:22 42° SSE 07:10:12 10° E daylight
16 Jun - 08:50:34 10° WSW 09:07:10 53° S 09:19:28 10° ESE daylight
16 Jun - 11:02:48 10° W 11:17:11 44° SSW 11:26:51 10° SE daylight
16 Jun - 13:16:54 10° W 13:25:04 20° SW 13:31:13 10° S daylight
17 Jun - 04:47:33 10° SSW 05:00:07 26° SE 05:12:51 10° E daylight
17 Jun - 06:54:10 10° SW 07:10:20 46° SSE 07:24:31 10° E daylight
17 Jun - 09:04:37 10° WSW 09:21:15 53° S 09:33:33 10° ESE daylight
17 Jun - 11:17:08 10° W 11:31:03 40° SSW 11:40:35 10° SE daylight
17 Jun - 13:32:19 10° WSW 13:38:35 15° SW 13:43:39 10° SSW daylight
18 Jun - 03:03:00 10° SE 03:05:06 10° SE 03:07:13 10° ESE visible
18 Jun - 05:00:15 10° SSW 05:13:50 32° SSE 05:27:43 10° E daylight
18 Jun - 07:07:51 10° SW 07:24:22 50° SSE 07:38:47 10° E daylight
18 Jun - 09:18:45 10° WSW 09:35:19 53° S 09:47:34 10° ESE daylight
18 Jun - 11:31:33 10° W 11:44:51 35° SSW 11:54:09 10° SSE daylight
18 Jun - 13:49:11 10° WSW 13:52:01 11° SW 13:54:34 10° SW daylight
19 Jun - 03:10:58 10° SSE 03:18:33 15° SE 03:26:41 10° ESE visible
19 Jun - 05:13:18 10° SSW 05:27:37 37° SSE 05:42:19 10° E daylight
19 Jun - 07:21:41 10° WSW 07:38:25 53° S 07:52:58 10° ESE daylight
19 Jun - 09:32:56 10° W 09:49:21 51° SSW 10:01:31 10° ESE daylight
19 Jun - 11:46:06 10° W 11:58:32 30° SW 12:07:30 10° SSE daylight
20 Jun - 03:22:15 10° S 03:32:03 20° SE 03:42:55 10° E daylight
20 Jun - 05:26:37 10° SW 05:41:27 42° SSE 05:56:47 10° E daylight
20 Jun - 07:35:38 10° WSW 07:52:29 55° S 08:07:06 10° ESE daylight
20 Jun - 09:47:09 10° W 10:03:18 48° SSW 10:15:21 10° SE daylight
20 Jun - 12:00:51 10° W 12:12:07 25° SW 12:20:35 10° S daylight
21 Jun - 03:34:27 10° S 03:45:35 25° SE 03:58:15 10° E daylight
21 Jun - 05:40:09 10° SW 05:55:21 47° SSE 06:11:06 10° E daylight
21 Jun - 07:49:39 10° WSW 08:06:33 55° S 08:21:10 10° ESE daylight
21 Jun - 10:01:27 10° W 10:17:12 44° SSW 10:29:04 10° SE daylight
21 Jun - 12:15:57 10° W 12:25:37 20° SW 12:33:14 10° S daylight
22 Jun - 03:47:10 10° SSW 03:59:10 31° SE 04:13:08 10° E daylight
22 Jun - 05:53:50 10° SW 06:09:18 50° SSE 06:25:21 10° E daylight
22 Jun - 08:03:45 10° WSW 08:20:36 55° S 08:35:11 10° ESE daylight
22 Jun - 10:15:49 10° W 10:30:59 39° SSW 10:42:37 10° SE daylight
22 Jun - 12:31:41 10° WSW 12:39:01 15° SW 12:45:12 10° SSW daylight
